Location: Unspecified
(42.2936°N, 3.1641°W)
Time: 15:30:28
(UTC+02:00)

X-37B - Pass Details

Date: 09 March 2021
Orbit: 380 x 394 km, 45.0° (Epoch: 07 April)

Event Time Altitude Azimuth Distance (km) Brightness Sun altitude
Rises 20:33:23 0° 201° (SSW) 2,260 4.6 -15.8°
Reaches altitude 10° 20:36:13 10° 173° (S) 1,413 3.2 -16.3°
Enters shadow 20:36:16 10° 172° (S) 1,404 3.2 -16.3°
